| time (UTC) | temp C | wind direction | speed KPH | gust KPH | rain 1hr cm | rain 24hr cm | rain mn cm | humidity % | barometer mb |
| 20260831221528 | 27 | 23 | 22.5 | 30.6 | 0.00 | 0.00 | 0.00 | 71 | 1011.0 |
| 20260831220028 | 27 | 26 | 24.1 | 33.8 | 0.00 | 0.00 | 0.00 | 72 | 1011.0 |
| 20260831214528 | 27 | 22 | 22.5 | 33.8 | 0.00 | 0.00 | 0.00 | 73 | 1011.3 |
| 20260831213027 | 27 | 9 | 25.7 | 32.2 | 0.00 | 0.00 | 0.00 | 74 | 1011.7 |
| 20260831211532 | 27 | 9 | 17.7 | 32.2 | 0.00 | 0.00 | 0.00 | 76 | 1012.0 |
| 20260831210034 | 27 | 350 | 22.5 | 40.2 | 0.00 | 0.00 | 0.00 | 74 | 1012.2 |
| 20260831204526 | 28 | 13 | 33.8 | 51.5 | 0.00 | 0.00 | 0.00 | 71 | 1012.7 |
| 20260831203024 | 32 | 15 | 30.6 | 45.1 | 0.00 | 0.00 | 0.00 | 61 | 1012.8 |
| 20260831201524 | 33 | 141 | 8.0 | 16.1 | 0.00 | 0.00 | 0.00 | 71 | 1012.1 |
| 20260831200022 | 33 | 161 | 12.9 | 16.1 | 0.00 | 0.00 | 0.00 | 71 | 1012.1 |
| 20260831194622 | 33 | 157 | 8.0 | 16.1 | 0.00 | 0.03 | 0.00 | 69 | 1012.5 |
| 20260831193030 | 33 | 148 | 11.3 | 16.1 | 0.00 | 0.03 | 0.00 | 71 | 1012.6 |
| 20260831191523 | 33 | 150 | 8.0 | 14.5 | 0.00 | 0.03 | 0.00 | 71 | 1012.8 |
| 20260831190024 | 32 | 149 | 9.7 | 12.9 | 0.00 | 0.03 | 0.00 | 71 | 1012.8 |
| 20260831184520 | 33 | 171 | 11.3 | 14.5 | 0.00 | 0.71 | 0.00 | 67 | 1013.1 |
| 20260831183017 | 33 | 175 | 1.6 | 8.0 | 0.00 | 0.71 | 0.00 | 66 | 1013.4 |
| 20260831181524 | 30 | 341 | 4.8 | 8.0 | 0.00 | 0.71 | 0.00 | 74 | 1013.5 |
| 20260831180019 | 27 | 32 | 6.4 | 11.3 | 0.00 | 0.71 | 0.00 | 84 | 1013.6 |
| 20260831174520 | 26 | 15 | 6.4 | 12.9 | 0.00 | 0.71 | 0.00 | 82 | 1013.5 |
| 20260831173017 | 27 | 345 | 4.8 | 16.1 | 0.00 | 0.71 | 0.00 | 76 | 1013.6 |
| 20260831171512 | 28 | 22 | 9.7 | 20.9 | 0.00 | 0.71 | 0.00 | 67 | 1013.6 |
| 20260831170014 | 29 | 355 | 29.0 | 37.0 | 0.00 | 0.71 | 0.00 | 67 | 1013.5 |
| 20260831164509 | 31 | 327 | 8.0 | 19.3 | 0.00 | 0.71 | 0.00 | 67 | 1013.6 |
| 20260831163005 | 33 | 145 | 8.0 | 16.1 | 0.00 | 0.71 | 0.00 | 73 | 1013.2 |
| 20260831161505 | 33 | 123 | 9.7 | 16.1 | 0.00 | 0.71 | 0.00 | 75 | 1012.7 |
| 20260831160001 | 32 | 150 | 9.7 | 17.7 | 0.00 | 0.71 | 0.00 | 76 | 1012.9 |
| 20260831154611 | 32 | 140 | 8.0 | 12.9 | 0.00 | 0.71 | 0.00 | 76 | 1013.0 |
| 20260831153056 | 32 | 121 | 8.0 | 14.5 | 0.00 | 0.71 | 0.00 | 77 | 1013.0 |
| 20260831151554 | 32 | 158 | 4.8 | 12.9 | 0.00 | 0.71 | 0.00 | 77 | 1012.8 |
| 20260831144557 | 31 | 132 | 8.0 | 16.1 | 0.00 | 0.71 | 0.00 | 77 | 1012.7 |
| 20260831143047 | 30 | 134 | 1.6 | 3.2 | 0.00 | 0.71 | 0.00 | 79 | 1012.6 |
| 20260831141543 | 29 | 325 | 0.0 | 6.4 | 0.00 | 0.71 | 0.00 | 81 | 1012.5 |
| 20260831140039 | 28 | 348 | 3.2 | 8.0 | 0.00 | 0.71 | 0.00 | 83 | 1012.2 |
| 20260831134538 | 27 | 360 | 4.8 | 9.7 | 0.00 | 0.71 | 0.00 | 86 | 1012.2 |
| 20260831133035 | 27 | 351 | 4.8 | 8.0 | 0.00 | 0.71 | 0.00 | 86 | 1012.1 |
| 20260831131552 | 27 | 329 | 4.8 | 6.4 | 0.00 | 0.71 | 0.00 | 85 | 1011.7 |
| 20260831130041 | 27 | 360 | 4.8 | 8.0 | 0.00 | 0.71 | 0.00 | 83 | 1011.7 |
| 20260831124538 | 27 | 360 | 4.8 | 8.0 | 0.00 | 0.71 | 0.00 | 82 | 1011.6 |
| 20260831123031 | 27 | 355 | 6.4 | 8.0 | 0.00 | 0.71 | 0.00 | 82 | 1011.4 |
| 20260831121532 | 27 | 351 | 4.8 | 9.7 | 0.00 | 0.71 | 0.00 | 83 | 1011.3 |
| 20260831120030 | 27 | 13 | 4.8 | 9.7 | 0.00 | 0.71 | 0.00 | 83 | 1011.3 |
| 20260831114529 | 27 | 344 | 9.7 | 14.5 | 0.00 | 0.71 | 0.00 | 83 | 1011.0 |
| 20260831113028 | 27 | 355 | 11.3 | 12.9 | 0.00 | 0.71 | 0.00 | 84 | 1011.1 |
| 20260831111539 | 27 | 342 | 11.3 | 16.1 | 0.00 | 0.71 | 0.00 | 84 | 1011.1 |
| 20260831104527 | 27 | 5 | 11.3 | 12.9 | 0.00 | 0.71 | 0.00 | 83 | 1010.9 |
| 20260831101523 | 27 | 5 | 9.7 | 12.9 | 0.00 | 0.71 | 0.00 | 81 | 1010.8 |
| 20260831100106 | 27 | 5 | 8.0 | 12.9 | 0.00 | 0.71 | 0.00 | 80 | 1010.8 |
| 20260831094532 | 27 | 11 | 8.0 | 12.9 | 0.00 | 0.71 | 0.00 | 81 | 1010.9 |
| 20260831093041 | 27 | 342 | 6.4 | 11.3 | 0.00 | 0.71 | 0.00 | 83 | 1010.9 |
| 20260831091520 | 27 | 14 | 6.4 | 11.3 | 0.00 | 0.71 | 0.00 | 82 | 1011.1 |
| 20260831090015 | 27 | 360 | 4.8 | 9.7 | 0.00 | 0.71 | 0.00 | 81 | 1011.4 |
| 20260831084514 | 27 | 21 | 4.8 | 11.3 | 0.00 | 0.71 | 0.00 | 81 | 1011.5 |
| 20260831083013 | 27 | 355 | 4.8 | 9.7 | 0.00 | 0.71 | 0.00 | 81 | 1011.7 |
| 20260831081513 | 27 | 15 | 6.4 | 9.7 | 0.00 | 0.71 | 0.00 | 81 | 1011.7 |
| 20260831080012 | 27 | 18 | 8.0 | 14.5 | 0.00 | 0.71 | 0.00 | 81 | 1011.5 |
| 20260831074510 | 27 | 331 | 8.0 | 11.3 | 0.00 | 0.71 | 0.00 | 80 | 1011.5 |
| 20260831071515 | 28 | 355 | 8.0 | 14.5 | 0.00 | 0.71 | 0.00 | 79 | 1011.4 |
| 20260831070006 | 28 | 343 | 9.7 | 12.9 | 0.00 | 0.71 | 0.00 | 78 | 1011.6 |
| 20260831064505 | 28 | 340 | 8.0 | 11.3 | 0.00 | 0.71 | 0.71 | 77 | 1011.7 |
| 20260831063008 | 28 | 360 | 9.7 | 14.5 | 0.00 | 0.71 | 0.71 | 76 | 1011.6 |
| 20260831061505 | 28 | 355 | 9.7 | 12.9 | 0.00 | 0.71 | 0.71 | 77 | 1011.7 |
| 20260831060009 | 28 | 360 | 8.0 | 14.5 | 0.00 | 0.71 | 0.71 | 76 | 1011.8 |
| 20260831054504 | 28 | 17 | 11.3 | 16.1 | 0.00 | 0.71 | 0.71 | 75 | 1011.8 |
| 20260831053004 | 28 | 20 | 8.0 | 12.9 | 0.00 | 0.71 | 0.71 | 75 | 1011.8 |
| 20260831051512 | 28 | 15 | 8.0 | 12.9 | 0.00 | 0.71 | 0.71 | 75 | 1011.7 |
| 20260831050002 | 28 | 355 | 8.0 | 12.9 | 0.00 | 0.71 | 0.71 | 74 | 1011.7 |
| 20260831044502 | 28 | 17 | 6.4 | 9.7 | 0.00 | 0.71 | 0.71 | 77 | 1011.7 |
| 20260831043001 | 28 | 5 | 6.4 | 8.0 | 0.00 | 0.71 | 0.71 | 79 | 1011.7 |
| 20260831041504 | 28 | 17 | 3.2 | 9.7 | 0.00 | 0.71 | 0.71 | 81 | 1011.4 |
| 20260831040001 | 28 | 332 | 4.8 | 9.7 | 0.00 | 0.71 | 0.71 | 82 | 1011.2 |
| 20260831034604 | 29 | 331 | 4.8 | 9.7 | 0.00 | 0.71 | 0.71 | 79 | 1011.0 |
| 20260831033109 | 30 | 355 | 1.6 | 4.8 | 0.00 | 0.71 | 0.71 | 79 | 1010.8 |
| 20260831030059 | 30 | 326 | 4.8 | 12.9 | 0.00 | 0.71 | 0.71 | 72 | 1010.5 |
| 20260831024558 | 30 | 285 | 8.0 | 12.9 | 0.00 | 0.71 | 0.71 | 72 | 1010.4 |
| 20260831023059 | 30 | 310 | 3.2 | 11.3 | 0.00 | 0.71 | 0.71 | 75 | 1010.3 |
| 20260831021558 | 30 | 284 | 3.2 | 8.0 | 0.00 | 0.71 | 0.71 | 76 | 1010.1 |
| 20260831020057 | 31 | 284 | 0.0 | 9.7 | 0.00 | 0.71 | 0.71 | 79 | 1010.1 |
| 20260831014558 | 31 | 251 | 6.4 | 11.3 | 0.00 | 0.71 | 0.71 | 77 | 1009.8 |
| 20260831013058 | 31 | 259 | 4.8 | 12.9 | 0.00 | 0.71 | 0.71 | 76 | 1009.6 |
| 20260831011558 | 31 | 257 | 8.0 | 16.1 | 0.00 | 0.71 | 0.71 | 75 | 1009.4 |
| 20260831004555 | 31 | 298 | 6.4 | 16.1 | 0.00 | 0.71 | 0.71 | 72 | 1009.2 |
| 20260831003055 | 31 | 296 | 6.4 | 14.5 | 0.00 | 0.71 | 0.71 | 71 | 1009.1 |
| 20260831001555 | 31 | 252 | 9.7 | 17.7 | 0.00 | 0.71 | 0.71 | 70 | 1008.9 |
| 20260830234559 | 32 | 262 | 6.4 | 17.7 | 0.00 | 0.71 | 0.71 | 69 | 1008.8 |
| 20260830233051 | 32 | 284 | 6.4 | 14.5 | 0.00 | 0.71 | 0.71 | 69 | 1008.9 |
| 20260830231553 | 33 | 274 | 6.4 | 14.5 | 0.00 | 0.71 | 0.71 | 66 | 1009.2 |
| 20260830224549 | 33 | 267 | 9.7 | 17.7 | 0.00 | 0.71 | 0.71 | 66 | 1009.7 |
| 20260830223046 | 33 | 304 | 8.0 | 14.5 | 0.00 | 0.71 | 0.71 | 65 | 1009.9 |